COSMOS 1275 DEB, 17619

Orbit data source: Space-Track

COSMOS 1275 DEB, 17619 is space debris in LEO originally from a launch on Thu, 04 Jun 1981 UTC launched from the Plesetsk Missile And Space Complex (PKMTR). Debris objects in space refer to the collection of defunct objects orbiting the Earth. Examples of debris include non-operational satellites, rocket bodies, and fragments generated from explosions, collisions, or faulty payload assembly.

Loading next visibility...
Identifier
17619, 1981-053KN
Orbit
LEO
Country
Flag of CISCIS
Related business
Manufacturer
Unknown
Mission
Spacecraft
Bus & Motor
Unknown
Mass
Unknown
Launch date (UTC)
1981-06-04 (45 years ago)
Launch vehicle
Unknown
Launch site
Plesetsk Missile And Space Complex (PKMTR)
Object type
Payload
Rocket body
Debris
Shape & HBR
Unknown shape, 0.1 m
Radar Cross Section
Small (<0.1 m²)

Expand to show TLE details & history
Last TLE update: 8 hours ago

TLE from 8 hours ago
0 COSMOS 1275 DEB
1 17619U 81053KN  25353.24195387  .00003359  00000-0  11485-2 0  9999
2 17619  82.9411 166.2624 0017504 317.1485 102.1052 14.36013638 89322
Epoch: 2025-12-19T05:48Z
TLE epoch observation values (Epoch: 2025-12-19T05:48:24.814Z)
Latitude
58.81918°
Longitude
2.81658°
Altitude
784.317 km
Speed
7.466 km/s
True Right ascension
11h 52m 01s
True Declination
58° 40' 02"
Sunlit
Object was in daylight at epoch
Visualization orbit readout
Latitude
Unknown
Longitude
Unknown
Altitude
Unknown
Speed
Unknown
Apparent Right ascension
Unknown
Apparent Declination
Unknown
Sunlit
N/A
Visualization observer readout
Local Sidereal Time
12:42:31
Azimuth
Unknown
Elevation
Unknown
Doppler factor
Unknown
Orbital elements
Apogee altitude
781.275 km
Perigee altitude
756.255 km
Semi-major axis
7,146.902 km
Eccentricity
0.00175
Inclination
82.9411°
RAAN
166.2624°
Arg. of periapsis
317.1485°
True anomaly
102.30123°
Mean anomaly
102.1052°
Eccentric anomaly
102.20322°
Mean motion
3.59225 °/min
Orbital period
100.22 mins
BSTAR
0.0011485
Loading maneuver chart data...
Computing Atmospheric mass density...
Loading historical data...
Loading historical data...
Loading historical data...
Loading historical data...
Loading historical data...
Loading historical data...
Loading historical data...

Documentation

Showing up to 5 results
|